Regional Weather Roundup
Issued by NWS

Home | Current Version | Previous Version | Text Only | Print | Product List | Glossary Off
Versions: 1 2 3 4 5 6 7 8 9 10 11 12 13 14 15 16 17 18 19 20 21 22 23 24 25 26 27 28 29 30 31 32 33 34 35 36 37 38 39 40 41 42 43 44 45 46 47 48 49 50

000
ASUS43 KIND 120059
RWRIN

WEATHER ROUNDUP FOR INDIANA
NATIONAL WEATHER SERVICE INDIANAPOLIS IN
800 PM EST THU FEB 11 2016

NOTE: "FAIR" INDICATES FEW OR NO CLOUDS BELOW 12,000 FEET WITH NO
SIGNIFICANT WEATHER AND/OR OBSTRUCTIONS TO VISIBILITY.

* - STATION DOES NOT REPORT WEATHER SUCH AS PRECIPITATION OR FOG.

+ - STATION NOT QUALITY CONTROLLED BY THE NATIONAL WEATHER SERVICE.
    USE DATA WITH CAUTION...ESPECIALLY DEWPOINT AND RELATIVE
    HUMIDITY OBSERVATIONS.

INZ001>003-010>013-019-020-120200-
NORTHWEST INDIANA

CITY           SKY/WX    TMP DP  RH WIND       PRES   REMARKS
GARY /AIRPORT/ CLEAR     19   5  53 SE5       30.30S WCI  13
RENSSELAER +   CLOUDY    21   5  49 SW3       30.29F

$$

LMZ046-743>745-120200-
SOUTHERN LAKE MICHIGAN

STATION/POSITION TIME  TEMP    WIND        PRES    WAVE
                       AIR SEA DIR/SP/G            HT
                 (UTC) (F)     (DEG/KT/KT) (MB)    (FT)
BURNS HARBOR     0000   19      70/  2/  3 1026.1F
MICHIGAN CITY    0000   18     150/  1/  2   N/A

$$

INZ004-005-014>016-021>024-120200-
NORTH CENTRAL INDIANA

CITY           SKY/WX    TMP DP  RH WIND       PRES   REMARKS
ELKHART        CLEAR     14   5  67 W7        30.28F WCI   4
GOSHEN         CLEAR     11   3  70 W6        30.27F WCI   1
SOUTH BEND     CLOUDY     6   2  83 CALM      30.28F

$$

INZ006>009-017-018-025>027-120200-
NORTHEAST INDIANA

CITY           SKY/WX    TMP DP  RH WIND       PRES   REMARKS
ANGOLA *+      CLOUDY    18   9  68 CALM      30.24S
FORT WAYNE     PTCLDY    17  10  74 W6        30.29S WCI   9

$$

INZ028-029-035-036-043>045-051>053-120200-
WEST CENTRAL INDIANA

CITY           SKY/WX    TMP DP  RH WIND       PRES   REMARKS
GREENCASTLE +  CLOUDY    21   3  45 N3        30.30F
LAFAYETTE      PTCLDY    20   8  60 CALM      30.30F
TERRE HAUTE    PTCLDY    24  13  62 CALM      30.32S

$$

INZ030>032-037>040-046>048-054>057-064-065-120200-
CENTRAL INDIANA

CITY           SKY/WX    TMP DP  RH WIND       PRES   REMARKS
GREENWOOD *+   CLOUDY    21  12  68 CALM      30.30
INDIANAPOLIS   CLOUDY    21   9  59 W6        30.29S WCI  13
-EAGLE CREEK   PTCLDY    22  10  60 W6        30.29S WCI  14
KOKOMO *+      CLOUDY    18   3  53 CALM      30.29S
MT COMFORT *+  PTCLDY    19  10  68 S3        30.30S
SHELBYVILLE    PTCLDY    21   9  59 SE6       30.30S WCI  13

$$

INZ033-034-041-042-049-050-058-059-120200-
EAST CENTRAL INDIANA

CITY           SKY/WX    TMP DP  RH WIND       PRES   REMARKS
MUNCIE         CLEAR     15   5  64 CALM      30.29S

$$

INZ060-061-067>069-081>083-085>088-120200-
SOUTHWEST INDIANA

CITY           SKY/WX    TMP DP  RH WIND       PRES   REMARKS
EVANSVILLE     CLOUDY    30  12  47 N6        30.33R WCI  24
HUNTINGBURG *+ CLOUDY    27  10  50 N5        30.32S WCI  21

$$

INZ062-063-066-070>080-084-089>092-120200-
SOUTH CENTRAL AND SOUTHEAST INDIANA

CITY           SKY/WX    TMP DP  RH WIND       PRES   REMARKS
BLOOMINGTON    MOCLDY    24  10  55 N3        30.29S
MADISON *+     CLOUDY    23   9  54 NE3       30.33R
SEYMOUR +      CLOUDY    25  10  54 NE5       30.32S WCI  19

$$




USA.gov is the U.S. government's official web portal to all federal, state and local government web resources and services.